Time,TemperatureF,DewpointF,PressureIn,WindDirection,WindDirectionDegrees,WindSpeedMPH,WindSpeedGustMPH,Humidity,HourlyPrecipIn,Conditions,Clouds,dailyrainin,SoftwareType,DateUTC
2013-02-20 00:01:00,33.0,29.0,30.25,NNW,348,0.0,0.0,84,0.00,,,0.00,,2013-02-20 06:01:00,
2013-02-20 00:11:00,33.0,29.0,30.25,NNW,348,0.0,0.0,84,0.00,,,0.00,,2013-02-20 06:11:00,
2013-02-20 00:21:00,33.0,29.0,30.26,NNW,348,0.0,0.0,84,0.00,,,0.00,,2013-02-20 06:21:00,
2013-02-20 00:31:00,32.0,28.0,30.26,NNW,348,0.0,0.0,84,0.00,,,0.00,,2013-02-20 06:31:00,
2013-02-20 00:42:00,32.0,28.0,30.26,NNW,348,0.0,0.0,84,0.00,,,0.00,,2013-02-20 06:42:00,
2013-02-20 00:52:00,32.0,28.0,30.26,NNW,348,0.0,0.0,84,0.00,,,0.00,,2013-02-20 06:52:00,
2013-02-20 01:01:00,32.0,27.0,30.26,NNW,348,0.0,0.0,83,0.00,,,0.00,,2013-02-20 07:01:00,
2013-02-20 01:11:00,32.0,27.0,30.26,NNW,348,0.0,0.0,83,0.00,,,0.00,,2013-02-20 07:11:00,
2013-02-20 01:21:00,32.0,27.0,30.25,NNW,348,0.0,1.0,82,0.00,,,0.00,,2013-02-20 07:21:00,
2013-02-20 01:31:00,33.0,26.0,30.25,NNW,348,0.0,0.0,76,0.00,,,0.00,,2013-02-20 07:31:00,
2013-02-20 01:41:00,33.0,26.0,30.25,NNW,348,0.0,0.0,76,0.00,,,0.00,,2013-02-20 07:41:00,
2013-02-20 01:52:00,33.0,25.0,30.26,NNW,348,0.0,0.0,72,0.00,,,0.00,,2013-02-20 07:52:00,
2013-02-20 02:05:00,33.0,25.0,30.26,NNW,348,0.0,0.0,71,0.00,,,0.00,,2013-02-20 08:05:00,
2013-02-20 02:11:00,33.0,25.0,30.26,NNW,348,0.0,0.0,71,0.00,,,0.00,,2013-02-20 08:11:00,
2013-02-20 02:21:00,33.0,23.0,30.26,North,360,0.0,3.0,65,0.00,,,0.00,,2013-02-20 08:21:00,
2013-02-20 02:31:00,34.0,22.0,30.27,NE,39,0.0,0.0,62,0.00,,,0.00,,2013-02-20 08:31:00,
2013-02-20 02:41:00,34.0,22.0,30.27,NE,39,0.0,0.0,62,0.00,,,0.00,,2013-02-20 08:41:00,
2013-02-20 02:52:00,34.0,21.0,30.27,NE,38,0.0,2.0,59,0.00,,,0.00,,2013-02-20 08:52:00,
2013-02-20 03:01:00,34.0,21.0,30.28,NE,36,0.0,0.0,58,0.00,,,0.00,,2013-02-20 09:01:00,
2013-02-20 03:11:00,34.0,21.0,30.28,NE,36,0.0,0.0,58,0.00,,,0.00,,2013-02-20 09:11:00,
2013-02-20 03:21:00,33.0,21.0,30.27,NE,36,0.0,0.0,60,0.00,,,0.00,,2013-02-20 09:21:00,
2013-02-20 03:31:00,33.0,22.0,30.28,NE,36,0.0,0.0,63,0.00,,,0.00,,2013-02-20 09:31:00,
2013-02-20 03:42:00,33.0,22.0,30.28,NE,36,0.0,0.0,63,0.00,,,0.00,,2013-02-20 09:42:00,
2013-02-20 03:52:00,33.0,22.0,30.28,NE,36,0.0,1.0,63,0.00,,,0.00,,2013-02-20 09:52:00,
2013-02-20 04:01:00,33.0,21.0,30.26,ESE,104,4.0,5.0,62,0.00,,,0.00,,2013-02-20 10:01:00,
2013-02-20 04:12:00,33.0,21.0,30.26,ESE,104,4.0,5.0,62,0.00,,,0.00,,2013-02-20 10:12:00,
2013-02-20 04:22:00,33.0,20.0,30.26,East,93,1.0,7.0,59,0.00,,,0.00,,2013-02-20 10:22:00,
2013-02-20 04:31:00,33.0,19.0,30.25,ESE,113,0.0,8.0,56,0.00,,,0.00,,2013-02-20 10:31:00,
2013-02-20 04:42:00,33.0,19.0,30.25,ESE,113,0.0,8.0,56,0.00,,,0.00,,2013-02-20 10:42:00,
2013-02-20 04:52:00,33.0,18.0,30.26,NE,51,2.0,6.0,54,0.00,,,0.00,,2013-02-20 10:52:00,
2013-02-20 05:02:00,32.0,17.0,30.26,East,84,3.0,8.0,53,0.00,,,0.00,,2013-02-20 11:02:00,
2013-02-20 05:11:00,33.0,16.0,30.27,ENE,76,3.0,11.0,50,0.00,,,0.00,,2013-02-20 11:11:00,
2013-02-20 05:21:00,33.0,16.0,30.27,ENE,76,3.0,11.0,50,0.00,,,0.00,,2013-02-20 11:21:00,
2013-02-20 05:32:00,32.0,15.0,30.28,ENE,75,4.0,8.0,50,0.00,,,0.00,,2013-02-20 11:32:00,
2013-02-20 05:42:00,32.0,15.0,30.28,ENE,75,4.0,8.0,50,0.00,,,0.00,,2013-02-20 11:42:00,
2013-02-20 05:52:00,32.0,16.0,30.28,ENE,63,2.0,6.0,51,0.00,,,0.00,,2013-02-20 11:52:00,
2013-02-20 06:01:00,32.0,16.0,30.27,East,96,2.0,7.0,52,0.00,,,0.00,,2013-02-20 12:01:00,
2013-02-20 06:12:00,32.0,16.0,30.27,East,96,2.0,7.0,52,0.00,,,0.00,,2013-02-20 12:12:00,
2013-02-20 06:21:00,31.0,16.0,30.28,ENE,74,0.0,5.0,53,0.00,,,0.00,,2013-02-20 12:21:00,
2013-02-20 06:32:00,31.0,17.0,30.28,ESE,107,0.0,4.0,56,0.00,,,0.00,,2013-02-20 12:32:00,
2013-02-20 06:42:00,31.0,17.0,30.28,ESE,107,0.0,4.0,56,0.00,,,0.00,,2013-02-20 12:42:00,
2013-02-20 06:53:00,31.0,18.0,30.27,ENE,70,2.0,6.0,57,0.00,,,0.00,,2013-02-20 12:53:00,
2013-02-20 07:01:00,31.0,18.0,30.28,ESE,103,2.0,6.0,58,0.00,,,0.00,,2013-02-20 13:01:00,
2013-02-20 07:11:00,31.0,18.0,30.28,ESE,103,2.0,6.0,58,0.00,,,0.00,,2013-02-20 13:11:00,
2013-02-20 07:22:00,31.0,17.0,30.30,ESE,122,3.0,8.0,55,0.00,,,0.00,,2013-02-20 13:22:00,
2013-02-20 07:31:00,31.0,16.0,30.31,East,81,5.0,12.0,54,0.00,,,0.00,,2013-02-20 13:31:00,
2013-02-20 07:42:00,31.0,16.0,30.31,East,81,5.0,12.0,54,0.00,,,0.00,,2013-02-20 13:42:00,
2013-02-20 07:52:00,31.0,15.0,30.32,East,101,2.0,7.0,51,0.00,,,0.00,,2013-02-20 13:52:00,
2013-02-20 08:01:00,31.0,15.0,30.33,ESE,109,0.0,7.0,50,0.00,,,0.00,,2013-02-20 14:01:00,
2013-02-20 08:11:00,31.0,15.0,30.33,ESE,109,0.0,7.0,50,0.00,,,0.00,,2013-02-20 14:11:00,
2013-02-20 08:21:00,31.0,15.0,30.33,East,98,0.0,8.0,50,0.00,,,0.00,,2013-02-20 14:21:00,
2013-02-20 08:32:00,31.0,15.0,30.34,NE,49,4.0,8.0,50,0.00,,,0.00,,2013-02-20 14:32:00,
2013-02-20 08:42:00,31.0,15.0,30.34,NE,49,4.0,8.0,50,0.00,,,0.00,,2013-02-20 14:42:00,
2013-02-20 08:52:00,31.0,15.0,30.34,East,93,2.0,6.0,52,0.00,,,0.00,,2013-02-20 14:52:00,
2013-02-20 09:01:00,31.0,15.0,30.34,East,96,1.0,10.0,52,0.00,,,0.00,,2013-02-20 15:01:00,
2013-02-20 09:11:00,31.0,15.0,30.34,East,96,1.0,10.0,52,0.00,,,0.00,,2013-02-20 15:11:00,
2013-02-20 09:22:00,31.0,15.0,30.34,ENE,74,3.0,8.0,50,0.00,,,0.00,,2013-02-20 15:22:00,
2013-02-20 09:32:00,31.0,15.0,30.33,NE,51,4.0,8.0,52,0.00,,,0.00,,2013-02-20 15:32:00,
2013-02-20 09:42:00,31.0,15.0,30.33,NE,51,4.0,8.0,52,0.00,,,0.00,,2013-02-20 15:42:00,
2013-02-20 09:52:00,32.0,16.0,30.32,ENE,60,5.0,10.0,52,0.00,,,0.00,,2013-02-20 15:52:00,
2013-02-20 10:01:00,32.0,17.0,30.31,NE,55,2.0,9.0,53,0.00,,,0.00,,2013-02-20 16:01:00,
2013-02-20 10:11:00,32.0,17.0,30.31,NE,55,2.0,9.0,53,0.00,,,0.00,,2013-02-20 16:11:00,
2013-02-20 10:21:00,32.0,16.0,30.32,ENE,64,5.0,10.0,52,0.00,,,0.00,,2013-02-20 16:21:00,
2013-02-20 10:32:00,33.0,17.0,30.33,East,101,3.0,7.0,52,0.00,,,0.00,,2013-02-20 16:32:00,
2013-02-20 10:41:00,33.0,17.0,30.33,East,101,3.0,7.0,52,0.00,,,0.00,,2013-02-20 16:41:00,
2013-02-20 10:52:00,33.0,17.0,30.33,East,98,1.0,6.0,52,0.00,,,0.00,,2013-02-20 16:52:00,
2013-02-20 11:01:00,34.0,18.0,30.32,SE,125,1.0,6.0,51,0.00,,,0.00,,2013-02-20 17:01:00,
2013-02-20 11:11:00,33.0,17.0,30.32,ESE,102,5.0,9.0,51,0.00,,,0.00,,2013-02-20 17:11:00,
2013-02-20 11:21:00,33.0,17.0,30.32,ESE,102,5.0,9.0,51,0.00,,,0.00,,2013-02-20 17:21:00,
2013-02-20 11:32:00,34.0,17.0,30.32,ENE,69,4.0,8.0,49,0.00,,,0.00,,2013-02-20 17:32:00,
2013-02-20 11:42:00,34.0,17.0,30.32,ENE,69,4.0,8.0,49,0.00,,,0.00,,2013-02-20 17:42:00,
2013-02-20 11:52:00,34.0,17.0,30.32,East,92,1.0,11.0,50,0.00,,,0.00,,2013-02-20 17:52:00,
2013-02-20 12:02:00,34.0,17.0,30.31,ENE,78,5.0,10.0,49,0.00,,,0.00,,2013-02-20 18:02:00,
2013-02-20 12:11:00,34.0,17.0,30.31,ENE,78,5.0,10.0,49,0.00,,,0.00,,2013-02-20 18:11:00,
2013-02-20 12:21:00,34.0,18.0,30.29,ENE,76,5.0,12.0,51,0.00,,,0.00,,2013-02-20 18:21:00,
2013-02-20 12:32:00,34.0,17.0,30.27,ESE,107,4.0,13.0,50,0.00,,,0.00,,2013-02-20 18:32:00,
2013-02-20 12:42:00,34.0,17.0,30.27,ESE,107,4.0,13.0,50,0.00,,,0.00,,2013-02-20 18:42:00,
2013-02-20 12:52:00,35.0,18.0,30.25,ESE,117,5.0,11.0,50,0.00,,,0.00,,2013-02-20 18:52:00,
2013-02-20 13:01:00,35.0,19.0,30.25,East,84,5.0,13.0,51,0.00,,,0.00,,2013-02-20 19:01:00,
2013-02-20 13:11:00,35.0,19.0,30.25,East,84,5.0,13.0,51,0.00,,,0.00,,2013-02-20 19:11:00,
2013-02-20 13:21:00,35.0,19.0,30.27,East,90,2.0,11.0,52,0.00,,,0.00,,2013-02-20 19:21:00,
2013-02-20 13:31:00,34.0,18.0,30.28,ENE,57,2.0,10.0,52,0.00,,,0.00,,2013-02-20 19:31:00,
2013-02-20 13:41:00,34.0,18.0,30.28,ENE,57,2.0,10.0,52,0.00,,,0.00,,2013-02-20 19:41:00,
2013-02-20 13:52:00,34.0,19.0,30.28,SE,132,3.0,8.0,53,0.00,,,0.00,,2013-02-20 19:52:00,
2013-02-20 14:01:00,35.0,18.0,30.27,SE,144,5.0,7.0,50,0.00,,,0.00,,2013-02-20 20:01:00,
2013-02-20 14:11:00,36.0,19.0,30.27,ESE,123,4.0,7.0,49,0.00,,,0.00,,2013-02-20 20:11:00,
2013-02-20 14:21:00,36.0,19.0,30.27,ESE,123,4.0,7.0,49,0.00,,,0.00,,2013-02-20 20:21:00,
2013-02-20 14:31:00,35.0,18.0,30.25,ESE,120,3.0,9.0,49,0.00,,,0.00,,2013-02-20 20:31:00,
2013-02-20 14:41:00,36.0,17.0,30.24,ESE,121,2.0,9.0,45,0.00,,,0.00,,2013-02-20 20:41:00,
2013-02-20 14:51:00,36.0,17.0,30.24,ESE,121,2.0,9.0,45,0.00,,,0.00,,2013-02-20 20:51:00,
2013-02-20 15:01:00,36.0,17.0,30.24,ENE,75,1.0,9.0,45,0.00,,,0.00,,2013-02-20 21:01:00,
2013-02-20 15:11:00,36.0,17.0,30.24,ENE,75,1.0,9.0,45,0.00,,,0.00,,2013-02-20 21:11:00,
2013-02-20 15:21:00,36.0,17.0,30.22,SE,146,1.0,7.0,45,0.00,,,0.00,,2013-02-20 21:21:00,
2013-02-20 15:31:00,36.0,17.0,30.22,ESE,105,6.0,12.0,45,0.00,,,0.00,,2013-02-20 21:31:00,
2013-02-20 15:41:00,36.0,17.0,30.22,ESE,105,6.0,12.0,45,0.00,,,0.00,,2013-02-20 21:41:00,
2013-02-20 15:52:00,36.0,17.0,30.22,ESE,119,3.0,9.0,45,0.00,,,0.00,,2013-02-20 21:52:00,
2013-02-20 16:01:00,36.0,17.0,30.21,ENE,69,5.0,11.0,45,0.00,,,0.00,,2013-02-20 22:01:00,
2013-02-20 16:11:00,36.0,17.0,30.21,ENE,69,5.0,11.0,45,0.00,,,0.00,,2013-02-20 22:11:00,
2013-02-20 16:21:00,36.0,18.0,30.19,East,89,4.0,8.0,47,0.00,,,0.00,,2013-02-20 22:21:00,
2013-02-20 16:31:00,36.0,18.0,30.20,SE,138,3.0,7.0,48,0.00,,,0.00,,2013-02-20 22:31:00,
2013-02-20 16:42:00,36.0,18.0,30.20,SE,138,3.0,7.0,48,0.00,,,0.00,,2013-02-20 22:42:00,
2013-02-20 16:52:00,36.0,19.0,30.20,ENE,69,3.0,7.0,49,0.00,,,0.00,,2013-02-20 22:52:00,
2013-02-20 17:01:00,35.0,19.0,30.20,East,92,1.0,8.0,51,0.00,,,0.00,,2013-02-20 23:01:00,
2013-02-20 17:12:00,35.0,19.0,30.20,East,92,1.0,8.0,51,0.00,,,0.00,,2013-02-20 23:12:00,
2013-02-20 17:22:00,35.0,18.0,30.20,ESE,117,2.0,7.0,50,0.00,,,0.00,,2013-02-20 23:22:00,
2013-02-20 17:31:00,35.0,21.0,30.20,ESE,104,0.0,6.0,57,0.00,,,0.00,,2013-02-20 23:31:00,
2013-02-20 17:42:00,35.0,21.0,30.20,ESE,104,0.0,6.0,57,0.00,,,0.00,,2013-02-20 23:42:00,
2013-02-20 17:52:00,35.0,23.0,30.18,East,88,1.0,6.0,61,0.00,,,0.00,,2013-02-20 23:52:00,
2013-02-20 18:02:00,34.0,22.0,30.19,East,80,2.0,8.0,62,0.00,,,0.00,,2013-02-21 00:02:00,
2013-02-20 18:11:00,34.0,22.0,30.19,East,80,2.0,8.0,62,0.00,,,0.00,,2013-02-21 00:11:00,
2013-02-20 18:21:00,34.0,22.0,30.19,ENE,69,2.0,8.0,62,0.00,,,0.00,,2013-02-21 00:21:00,
2013-02-20 18:32:00,34.0,22.0,30.21,East,88,0.0,4.0,62,0.00,,,0.00,,2013-02-21 00:32:00,
2013-02-20 18:42:00,34.0,22.0,30.21,East,88,0.0,4.0,62,0.00,,,0.00,,2013-02-21 00:42:00,
2013-02-20 18:52:00,34.0,23.0,30.23,ENE,57,1.0,2.0,63,0.00,,,0.00,,2013-02-21 00:52:00,
2013-02-20 19:01:00,34.0,25.0,30.20,ENE,63,4.0,8.0,69,0.00,,,0.00,,2013-02-21 01:01:00,
2013-02-20 19:11:00,34.0,25.0,30.20,ENE,63,4.0,8.0,69,0.00,,,0.00,,2013-02-21 01:11:00,
2013-02-20 19:21:00,33.0,24.0,30.22,East,86,3.0,8.0,68,0.00,,,0.00,,2013-02-21 01:21:00,
2013-02-20 19:32:00,33.0,24.0,30.22,South,171,0.0,6.0,68,0.00,,,0.00,,2013-02-21 01:32:00,
2013-02-20 19:42:00,33.0,24.0,30.22,South,171,0.0,6.0,68,0.00,,,0.00,,2013-02-21 01:42:00,
2013-02-20 19:52:00,34.0,25.0,30.22,ENE,76,1.0,4.0,69,0.00,,,0.00,,2013-02-21 01:52:00,
2013-02-20 20:01:00,33.0,24.0,30.21,East,96,0.0,6.0,69,0.00,,,0.00,,2013-02-21 02:01:00,
2013-02-20 20:11:00,33.0,24.0,30.21,East,96,0.0,6.0,69,0.00,,,0.00,,2013-02-21 02:11:00,
2013-02-20 20:21:00,33.0,25.0,30.19,East,100,1.0,5.0,72,0.00,,,0.00,,2013-02-21 02:21:00,
2013-02-20 20:32:00,33.0,25.0,30.18,NE,49,2.0,9.0,73,0.00,,,0.00,,2013-02-21 02:32:00,
2013-02-20 20:42:00,33.0,25.0,30.18,NE,49,2.0,9.0,73,0.00,,,0.00,,2013-02-21 02:42:00,
2013-02-20 20:52:00,33.0,25.0,30.18,NE,49,2.0,9.0,73,0.00,,,0.00,,2013-02-21 02:52:00,
2013-02-20 21:01:00,33.0,25.0,30.18,East,80,4.0,7.0,73,0.00,,,0.00,,2013-02-21 03:01:00,
2013-02-20 21:12:00,33.0,25.0,30.18,East,80,4.0,7.0,73,0.00,,,0.00,,2013-02-21 03:12:00,
2013-02-20 21:21:00,33.0,25.0,30.19,ENE,74,1.0,5.0,72,0.00,,,0.00,,2013-02-21 03:21:00,
2013-02-20 21:32:00,33.0,24.0,30.19,SE,140,1.0,7.0,70,0.00,,,0.00,,2013-02-21 03:32:00,
2013-02-20 21:41:00,33.0,24.0,30.19,SE,140,1.0,7.0,70,0.00,,,0.00,,2013-02-21 03:41:00,
2013-02-20 21:52:00,33.0,24.0,30.19,ENE,69,0.0,6.0,70,0.00,,,0.00,,2013-02-21 03:52:00,
2013-02-20 22:01:00,33.0,24.0,30.19,East,91,4.0,6.0,69,0.00,,,0.00,,2013-02-21 04:01:00,
2013-02-20 22:11:00,33.0,24.0,30.19,East,91,4.0,6.0,69,0.00,,,0.00,,2013-02-21 04:11:00,
2013-02-20 22:21:00,33.0,24.0,30.18,ESE,117,4.0,7.0,68,0.00,,,0.00,,2013-02-21 04:21:00,
2013-02-20 22:32:00,33.0,23.0,30.19,SE,129,0.0,5.0,67,0.00,,,0.00,,2013-02-21 04:32:00,
2013-02-20 22:42:00,33.0,23.0,30.19,SE,129,0.0,5.0,67,0.00,,,0.00,,2013-02-21 04:42:00,
2013-02-20 22:52:00,33.0,24.0,30.19,East,99,1.0,4.0,68,0.00,,,0.00,,2013-02-21 04:52:00,
2013-02-20 23:02:00,33.0,24.0,30.19,East,98,1.0,5.0,68,0.00,,,0.00,,2013-02-21 05:02:00,
2013-02-20 23:12:00,33.0,24.0,30.19,East,98,1.0,5.0,68,0.00,,,0.00,,2013-02-21 05:12:00,
2013-02-20 23:22:00,33.0,24.0,30.18,East,90,0.0,5.0,69,0.00,,,0.00,,2013-02-21 05:22:00,
2013-02-20 23:34:00,34.0,24.0,30.18,East,93,3.0,7.0,67,0.00,,,0.00,,2013-02-21 05:34:00,
2013-02-20 23:43:00,34.0,24.0,30.18,East,93,3.0,7.0,67,0.00,,,0.00,,2013-02-21 05:43:00,
2013-02-20 23:59:00,34.0,24.0,30.17,ESE,105,0.0,4.0,67,0.00,,,0.00,,2013-02-21 05:59:00,